Weather in Kislovo

Russia / Volgograd Oblast     49°53′40″N   45°22′54″E
temp.,
°C
wind,
m/s
gust,
m/s
humid.,
%
clouds,
%
prec.,
mm/h
press.,
hPa
HPBL,
m
7 march, sun
sun700:00−4nnw2394100 0.1 1014174
03:00−5nw51090100 0.4 1015517
06:00−9wnw7128964 0.0 1017336
09:00−8wnw7118232 0.0 1019388
12:00−4w69710 0.0 1019866
15:00−2wsw6106930 0.0 10171400
18:00−3sw61380100 0.0 1014481
21:00−2sw71576100 0.0 1013741
8 march, mon
mon800:00−3sw81678100 0.0 1010783
03:00−3sw9177875 0.0 1009758
06:00−3wsw816818 0.0 1008641
09:00−1wsw8148010 0.0 1009756
12:00+1wsw9138074 0.0 10091064
15:00+2wsw8137787 0.1 10081241
18:000sw61382100 0.0 1008454
21:00−1sw6138688 0.0 1009383
9 march, tue
tue900:00−1wsw4119361 0.1 1009368
03:00−2nw229581 1.0 100962
06:00−3nnw2497100 0.3 1009154
09:00−4nnw5888100 1.3 1010499
12:00−3nw467625 0.0 1012696
15:00−2wnw577631 0.0 1013909
18:00−5nw368463 0.0 1014354
21:00−7nw478581 0.0 1016366
10 march, wed
wed1000:00−8nw488691 0.0 1016391
03:00−10nw588646 0.0 1018317
06:00−12nw59850 0.0 1019390
09:00−11nw58800 0.0 1021491
12:00−10nw577457 0.0 1022796
15:00−10nw687070 0.0 1023917
18:00−12nw69759 0.0 1024708
21:00−14nnw59784 0.0 1026527
11 march, thu
thu1100:00−16nnw57780 0.0 1027434
03:00−17nnw57790 0.0 1028347
06:00−18nnw47780 0.0 1029326
09:00−17n35680 0.0 1031410
12:00−14nnw33570 0.0 1032586
15:00−12nnw44560 0.0 1032567
18:00−13nnw34710 0.0 1032303
21:00−14wnw23740 0.0 1033155